TimeEDT,TemperatureF,Dew PointF,Humidity,Sea Level PressureIn,VisibilityMPH,Wind Direction,Wind SpeedMPH,Gust SpeedMPH,PrecipitationIn,Events,Conditions,WindDirDegrees,DateUTC
12:04 AM,64.4,62.6,94,29.75,6.0,South,8.1,-,0.00,Rain,Light Rain,180,2013-05-24 04:04:00
12:54 AM,64.0,62.1,93,29.66,10.0,South,10.4,-,0.00,Rain,Light Rain,190,2013-05-24 04:54:00
1:54 AM,64.0,62.1,93,29.65,3.0,SW,10.4,17.3,0.05,Rain,Rain,220,2013-05-24 05:54:00
2:09 AM,62.6,59.0,88,29.71,2.5,SW,6.9,-,0.04,Rain,Rain,220,2013-05-24 06:09:00
2:24 AM,60.8,59.0,94,29.71,9.0,Calm,Calm,-,0.05,Rain,Light Rain,0,2013-05-24 06:24:00
2:54 AM,61.0,59.0,93,29.64,10.0,Calm,Calm,-,0.05,Rain,Light Rain,0,2013-05-24 06:54:00
3:54 AM,60.1,57.9,93,29.61,10.0,Calm,Calm,-,0.01,,Overcast,0,2013-05-24 07:54:00
4:54 AM,59.0,59.0,100,29.61,5.0,WNW,3.5,-,0.02,Rain,Light Rain,290,2013-05-24 08:54:00
5:02 AM,59.0,59.0,100,29.67,4.0,Calm,Calm,-,0.00,,Overcast,0,2013-05-24 09:02:00
5:11 AM,59.0,59.0,100,29.68,7.0,WSW,5.8,-,0.00,,Overcast,240,2013-05-24 09:11:00
5:18 AM,59.0,59.0,100,29.68,8.0,SW,3.5,-,0.00,,Mostly Cloudy,220,2013-05-24 09:18:00
5:31 AM,59.0,57.2,94,29.69,8.0,WSW,5.8,-,0.00,,Scattered Clouds,250,2013-05-24 09:31:00
5:54 AM,60.1,57.9,93,29.64,9.0,WSW,8.1,-,0.00,,Mostly Cloudy,250,2013-05-24 09:54:00
6:01 AM,60.8,59.0,94,29.69,10.0,WSW,6.9,-,N/A,,Overcast,250,2013-05-24 10:01:00
6:22 AM,60.8,57.2,88,29.70,10.0,West,8.1,-,N/A,,Overcast,260,2013-05-24 10:22:00
6:29 AM,60.8,57.2,88,29.70,10.0,West,6.9,-,N/A,,Overcast,260,2013-05-24 10:29:00
6:54 AM,60.1,59.0,96,29.66,10.0,SSW,3.5,-,N/A,,Overcast,210,2013-05-24 10:54:00
7:14 AM,60.8,57.2,88,29.72,10.0,SW,4.6,-,N/A,,Overcast,220,2013-05-24 11:14:00
7:42 AM,57.2,55.4,94,29.73,2.5,NW,9.2,20.7,0.00,Rain,Light Rain,310,2013-05-24 11:42:00
7:54 AM,55.9,54.0,93,29.69,2.0,WNW,9.2,-,0.01,Rain,Light Rain,290,2013-05-24 11:54:00
8:00 AM,55.4,53.6,94,29.74,3.0,WNW,9.2,-,0.00,Rain,Light Rain,300,2013-05-24 12:00:00
8:44 AM,51.8,50.0,94,29.77,2.5,WSW,8.1,-,0.00,,Overcast,240,2013-05-24 12:44:00
8:54 AM,51.1,48.9,92,29.73,4.0,SW,6.9,-,0.00,,Overcast,230,2013-05-24 12:54:00
9:54 AM,48.0,46.0,93,29.75,10.0,West,11.5,-,0.01,,Overcast,280,2013-05-24 13:54:00
10:22 AM,46.4,46.4,100,29.82,3.0,WNW,11.5,18.4,N/A,,Overcast,290,2013-05-24 14:22:00
10:32 AM,46.4,44.6,93,29.82,2.0,West,15.0,-,N/A,,Overcast,280,2013-05-24 14:32:00
10:42 AM,46.4,46.4,100,29.82,1.5,West,10.4,-,N/A,,Overcast,280,2013-05-24 14:42:00
10:54 AM,48.0,46.0,93,29.78,1.5,WNW,9.2,-,N/A,,Overcast,290,2013-05-24 14:54:00
11:06 AM,48.2,46.4,93,29.82,2.0,West,11.5,-,N/A,,Overcast,280,2013-05-24 15:06:00
11:29 AM,48.2,46.4,93,29.82,3.0,West,9.2,-,N/A,,Overcast,280,2013-05-24 15:29:00
11:54 AM,48.0,46.0,93,29.78,4.0,West,10.4,-,N/A,,Overcast,280,2013-05-24 15:54:00
12:12 PM,48.2,46.4,93,29.82,1.8,WNW,8.1,-,N/A,,Overcast,290,2013-05-24 16:12:00
12:54 PM,48.9,46.9,93,29.79,1.5,WNW,8.1,-,N/A,,Overcast,290,2013-05-24 16:54:00
1:42 PM,48.2,46.4,93,29.83,2.0,WNW,10.4,-,N/A,,Overcast,300,2013-05-24 17:42:00
1:54 PM,48.0,46.0,93,29.79,4.0,WNW,10.4,-,N/A,,Overcast,290,2013-05-24 17:54:00
2:33 PM,48.2,44.6,87,29.84,10.0,NW,8.1,17.3,N/A,,Overcast,320,2013-05-24 18:33:00
2:54 PM,48.9,45.0,86,29.81,10.0,NNW,8.1,18.4,N/A,,Overcast,330,2013-05-24 18:54:00
3:27 PM,48.2,44.6,87,29.85,9.0,NNW,6.9,-,N/A,,Overcast,330,2013-05-24 19:27:00
3:54 PM,46.9,43.0,86,29.82,4.0,NNW,11.5,-,0.02,Rain,Light Rain,330,2013-05-24 19:54:00
4:04 PM,46.4,44.6,93,29.85,2.5,NW,11.5,19.6,0.01,Rain,Light Rain,320,2013-05-24 20:04:00
4:11 PM,46.4,44.6,93,29.84,4.0,NW,8.1,19.6,0.02,Rain,Light Rain,320,2013-05-24 20:11:00
4:54 PM,46.9,43.0,86,29.83,9.0,NW,9.2,-,0.03,Rain,Light Rain,310,2013-05-24 20:54:00
5:54 PM,45.0,42.1,90,29.84,9.0,NW,10.4,18.4,0.02,Rain,Light Rain,320,2013-05-24 21:54:00
6:27 PM,44.6,41.0,87,29.88,7.0,NNW,9.2,18.4,0.01,Rain,Light Rain,330,2013-05-24 22:27:00
6:44 PM,44.6,41.0,87,29.88,5.0,NNW,9.2,-,0.02,Rain,Light Rain,330,2013-05-24 22:44:00
6:54 PM,44.1,39.9,85,29.86,5.0,NNW,11.5,-,0.03,Rain,Light Rain,330,2013-05-24 22:54:00
7:54 PM,43.0,39.9,89,29.88,8.0,NW,11.5,17.3,0.03,Rain,Light Rain,320,2013-05-24 23:54:00
8:15 PM,42.8,39.2,87,29.90,10.0,NW,13.8,20.7,0.01,Rain,Light Rain,320,2013-05-25 00:15:00
8:54 PM,43.0,39.0,86,29.89,10.0,NNW,9.2,19.6,0.01,,Overcast,330,2013-05-25 00:54:00
9:54 PM,42.1,37.9,85,29.91,8.0,NNW,12.7,23.0,0.05,Rain,Light Rain,340,2013-05-25 01:54:00
10:54 PM,41.0,37.9,89,29.91,4.0,NNW,11.5,25.3,0.08,Rain,Light Rain,330,2013-05-25 02:54:00
11:54 PM,41.0,37.9,89,29.90,5.0,NW,10.4,17.3,0.03,Rain,Light Rain,320,2013-05-25 03:54:00